This is the latest recevied weather packets stored in our database for station/object AG1T-1. If no packets are shown the sender has not sent any weather packets the latest 10 day(s).
| Time | Temp. | Humidity | Pressure | Rain* | Wind** | Luminosity | Snow |
|---|---|---|---|---|---|---|---|
| 1777793403 | 7.22° C | 62% | 1020.4 hPa | 0 mm | - | 0 W/m² | - |
| 1777792803 | 7.22° C | 61% | 1020.5 hPa | 0 mm | - | 0 W/m² | - |
| 1777792203 | 7.78° C | 60% | 1020.4 hPa | 0 mm | - | 0 W/m² | - |
| 1777791603 | 8.33° C | 57% | 1020.4 hPa | 0 mm | - | 0 W/m² | - |
| 1777791003 | 8.89° C | 55% | 1020.3 hPa | 0 mm | - | 0 W/m² | - |
| 1777790403 | 10° C | 49% | 1020.2 hPa | 0 mm | - | 0 W/m² | - |
| 1777789803 | 10° C | 45% | 1020.2 hPa | 0 mm | - | 0 W/m² | - |
| 1777789203 | 10.56° C | 44% | 1020.2 hPa | 0 mm | - | 0 W/m² | - |
| 1777788603 | 10.56° C | 44% | 1020.2 hPa | 0 mm | - | 0 W/m² | - |
| 1777788003 | 10.56° C | 44% | 1020.2 hPa | 0 mm | - | 0 W/m² | - |
| 1777787403 | 10.56° C | 43% | 1020.2 hPa | 0 mm | - | 0 W/m² | - |
| 1777786803 | 10.56° C | 46% | 1020.1 hPa | 0 mm | - | 0 W/m² | - |
| 1777786203 | 10.56° C | 46% | 1020.1 hPa | 0 mm | - | 0 W/m² | - |
| 1777785603 | 10.56° C | 46% | 1020.2 hPa | 0 mm | - | 0 W/m² | - |
| 1777785003 | 10.56° C | 46% | 1020.2 hPa | 0 mm | - | 0 W/m² | - |
| 1777784403 | 11.11° C | 46% | 1020.3 hPa | 0 mm | - | 0 W/m² | - |
| 1777783803 | 11.11° C | 47% | 1020.4 hPa | 0 mm | - | 0 W/m² | - |
| 1777783203 | 11.11° C | 47% | 1020.6 hPa | 0 mm | - | 0 W/m² | - |
| 1777782603 | 11.67° C | 47% | 1020.5 hPa | 0 mm | - | 0 W/m² | - |
| 1777782003 | 11.67° C | 46% | 1020.6 hPa | 0 mm | - | 0 W/m² | - |
| 1777781403 | 12.22° C | 45% | 1020.5 hPa | 0 mm | - | 0 W/m² | - |
| 1777780803 | 13.33° C | 45% | 1020.5 hPa | 0 mm | - | 0 W/m² | - |
| 1777780203 | 13.89° C | 42% | 1020.4 hPa | 0 mm | - | 0 W/m² | - |
| 1777779603 | 14.44° C | 39% | 1020.3 hPa | 0 mm | - | 0 W/m² | - |
| 1777779003 | 14.44° C | 37% | 1020.2 hPa | 0 mm | - | 0 W/m² | - |
* Rain latest hour (hover to see other rain measurements)
** Current wind speed in m/s (hover to see current wind gust speed)